OKEAN-0
1 25860U 99039A 11104.00190283 .00000548 00000-0 91273-4 0 03033
2 25860 097.8771 072.2381 0001030 105.0431 255.0891 14.73754123631202
NOAA-16
1 26536U 00055A 11104.25935476 .00000198 00000-0 13184-3 0 2609
2 26536 099.1454 133.4878 0010349 208.0631 151.9969 14.12609884544339
NOAA-17
1 27453U 02032A 11104.31764176 .00000071 00000-0 48699-4 0 2542
2 27453 098.3857 146.9402 0011441 341.2143 018.8614 14.24257609457563
NOAA-18
1 28654U 05018A 11104.51410306 -.00000073 00000-0 -15446-4 0 7350
2 28654 098.9903 055.5244 0013540 286.1461 073.8225 14.11458430303948
NOAA-19
1 33591U 09005A 11104.49729123 -.00000112 00000-0 -38212-4 0 9276
2 33591 098.8223 045.7361 0014314 152.9721 207.2195 14.11150948112409
HUBBLE
1 20580U 90037B 11103.23744914 .00001578 00000-0 10714-3 0 7461
2 20580 028.4683 080.7005 0003489 147.4577 212.6114 15.01279103949881
ISS
1 25544U 98067A 11104.99551323 .00026104 00000-0 18777-3 0 1903
2 25544 051.6448 125.2437 0002715 111.5701 332.3136 15.73416244710955
CO-58
1 28895U 05043F 11104.67533442 .00000687 00000-0 15203-3 0 8483
2 28895 097.9774 343.4887 0018779 062.2614 298.0494 14.60062831290971
FALCON
1 30776U 07006E 11103.94086801 .00004180 00000-0 29609-3 0 00788
2 30776 035.4336 017.5669 0002001 287.2276 072.8219 15.04404334225365
MAST
1 31126U 07012K 11103.81821365 .00000422 00000-0 10517-3 0 1327
2 31126 097.9018 134.6667 0094846 011.8428 348.4962 14.53716506211735
CAPE1
1 31130U 07012P 11103.60649051 .00000613 00000-0 15097-3 0 01521
2 31130 097.9044 131.3289 0102977 022.4500 338.1146 14.52348001211265
COMPASS
1 32787U 08021E 11103.27539916 .00001858 00000-0 23862-3 0 09600
2 32787 097.8532 168.2880 0016374 031.8204 328.4046 14.82293112159943
AAUSAT2
1 32788U 08021F 11103.71954527 .00001449 00000-0 18675-3 0 09500
2 32788 097.8513 168.9257 0016001 031.5585 328.6564 14.82468346160025
DO-64
1 32789U 08021G 11103.68054787 .00002977 00000-0 37340-3 0 09671
2 32789 097.8612 169.7756 0015781 029.8374 330.3755 14.82853305160024
CO-66
1 32791U 08021J 11104.69679493 .00001637 00000-0 21243-3 0 9524
2 32791 097.8522 169.6432 0016723 025.4475 334.7542 14.82013370160109
RS-30
1 32953U 08025A 11104.72223495 .00000010 00000-0 00000 0 0 6388
2 32953 082.5036 202.1696 0019558 161.8554 198.3233 12.43011841131203
TACSAT-3
1 35001U 09028A 11104.71038190 .00024461 00000-0 47248-3 0 5647
2 35001 040.4533 197.7086 0021694 096.1076 264.2213 15.46925415107245
PHARMSAT
1 35002U 09028B 11104.66674037 .00021058 00000-0 40818-3 0 5249
2 35002 040.4685 195.4868 0023684 102.8310 257.5155 15.46836471107269
HAWKSAT1
1 35003U 09028C 11104.53928163 .00075087 00000-0 96212-3 0 5822
2 35003 040.4555 175.6754 0021561 126.3909 233.8904 15.57881305107477
CP6
1 35004U 09028D 11104.51829705 .00094308 00000-0 10466-2 0 5860
2 35004 040.4562 170.0708 0020695 130.6236 229.6397 15.61571238107523
METEOR-M
1 35865U 09049A 11104.74676945 .00000176 00000-0 10000-3 0 2793
2 35865 098.7127 160.6783 0001790 201.4398 158.6656 14.21836620 81579
RS-38
1 35869U 09049E 11104.75453358 .00000177 00000-0 10000-3 0 2857
2 35869 098.7102 160.7255 0004187 206.7004 153.3942 14.22006403 81586
